Вернуться в каталог

SJ-30C

АктивенНаукаVLEO
NORAD 66547·PAYLOAD·🇨🇳 China

Запущен Nov 19, 2025 с Jiuquan Satellite Launch Center

Loading…

Ближайшие Пролёты (ближайшие 24 часа)

TLE

СвежийSource: Space-Track

Эпоха: Sep 14, 2026, 15:45 UTC

1 66547U 25266C   26257.65691739  .00004650  00000-0  25809-3 0  9999
2 66547  51.7963 120.2544 0006709 184.9552 175.1359 15.15540941 45426

Отслеживайте SJ-30C в реальном времени с AllMySat

Download on the App Store